Theta_e
309 307 304 302 301 302 304 302 296 291 292 294 293 297 298 300 303 303 303 305 304 302 301 301 300 300 299 299 299 299 299 299 299 300 300 300 300 300
309 304 301 300 300 301 301 301 301 298 293 295 295 295 296 297 300 300 301 301 301 300 299 299 298 298 297 297 297 297 297 297 297 298 299 299 299 299
307 304 301 300 300 300 300 300 301 302 293 294 295 295 294 295 297 298 298 297 297 299 298 298 297 296 296 295 295 295 296 296 296 296 297 297 297 297
305 304 301 300 300 300 300 300 300 300 294 290 293 293 293 294 295 295 295 296 295 297 297 297 297 295 294 294 294 294 294 294 294 295 295 295 295 296
305 304 301 300 299 299 299 298 299 298 295 292 291 293 294 293 292 293 292 291 293 297 296 296 296 294 293 293 293 292 292 293 293 293 293 293 293 294
306 304 301 300 299 299 298 298 297 296 295 293 291 291 292 292 292 289 287 289 288 292 294 294 295 293 292 293 291 291 291 291 292 292 292 292 292 292
306 304 301 301 300 300 298 297 297 296 294 292 290 290 290 288 288 288 286 287 287 288 288 288 289 289 288 291 291 291 290 291 291 291 291 291 291 291
304 304 302 298 300 301 301 300 298 296 294 293 291 289 289 289 289 287 287 285 282 288 286 286 287 286 287 287 292 290 289 289 290 290 290 289 290 290
305 304 300 299 299 299 300 300 300 300 299 296 292 292 291 290 290 287 287 285 286 285 285 284 285 284 286 287 291 290 289 288 289 288 288 288 289 289
306 305 301 299 299 298 297 296 296 296 296 296 297 295 294 293 291 289 288 285 284 284 285 283 284 283 284 285 289 290 289 288 288 287 287 288 287 288
305 305 301 299 300 299 296 294 293 292 295 297 298 298 298 297 294 290 285 284 281 281 283 284 283 283 283 283 285 288 288 287 287 287 286 287 287 287
304 302 301 300 299 299 296 294 290 289 290 290 291 293 295 294 295 289 287 285 283 281 284 283 283 281 280 282 283 283 284 287 287 286 286 286 286 281
300 299 300 300 299 299 298 295 293 292 292 289 288 288 288 287 287 287 288 287 287 285 285 287 284 281 282 280 281 282 282 282 281 281 285 285 286 284
300 300 300 299 298 298 298 298 296 294 289 287 286 286 284 284 284 285 285 285 285 286 286 286 284 283 282 280 279 281 282 281 280 279 279 282 284 284
300 300 299 297 297 297 298 296 294 289 287 285 284 284 284 284 284 284 284 284 284 284 285 285 284 283 283 280 280 280 278 279 279 278 278 278 278 278
296 297 297 297 296 295 294 292 289 288 287 286 284 284 284 283 283 284 282 283 281 280 282 283 283 283 280 281 279 278 277 274 277 277 277 278 278 279
296 295 293 291 290 289 287 286 287 287 286 284 283 282 283 283 283 284 283 283 282 280 280 281 281 281 280 280 276 277 276 276 277 276 276 276 277 278
294 291 290 290 289 287 285 285 285 286 284 284 283 283 282 282 282 283 283 284 281 281 279 279 278 277 276 278 280 276 276 275 275 276 277 273 275 277
291 291 290 289 287 286 286 285 284 284 285 284 283 283 283 282 282 282 283 282 280 280 278 278 277 275 273 272 276 280 273 274 274 273 274 273 274 276
291 290 290 288 287 286 286 286 284 284 284 283 283 283 283 282 281 281 282 280 279 278 276 276 276 273 272 271 271 275 279 273 272 271 271 274 277 281
290 290 289 288 288 287 287 286 285 285 284 283 283 283 283 283 282 282 281 282 280 278 276 275 275 279 273 272 269 273 276 280 278 272 271 271 271 273
290 289 289 288 288 287 286 286 285 285 284 284 283 283 284 284 282 281 280 279 278 278 276 274 273 273 272 269 267 269 273 275 279 280 280 277 269 269
289 288 288 287 287 286 286 286 285 284 284 284 283 284 284 283 283 282 280 279 278 277 275 274 272 272 271 268 268 268 268 271 272 272 274 280 280 281
Wind_Speed
14 12 9 7 6 7 11 11 7 8 6 8 4 7 5 5 7 6 7 9 12 10 10 9 8 8 8 8 9 9 10 10 11 12 13 14 16 17
11 14 10 9 8 6 10 9 4 5 5 4 4 9 8 6 6 4 8 8 10 10 9 9 8 7 7 7 8 8 9 9 10 12 13 14 16 17
14 15 13 13 8 8 8 7 3 4 7 6 3 9 9 8 6 5 7 6 5 9 9 8 7 6 5 6 6 7 8 8 10 11 13 15 16 19
17 16 14 10 11 10 8 8 5 5 6 12 8 8 9 9 9 8 6 5 6 9 8 7 7 5 4 4 5 5 6 8 10 11 13 15 17 19
18 17 15 14 12 9 9 9 6 5 7 9 7 7 7 8 8 6 5 4 4 11 8 7 7 5 4 3 3 4 5 7 9 11 12 13 17 19
16 16 16 16 15 13 10 10 9 7 9 8 9 9 8 7 6 7 6 3 4 6 5 4 7 5 3 3 3 3 4 6 8 11 12 13 17 19
15 15 15 15 18 16 11 11 11 8 9 8 9 8 8 9 10 6 5 4 4 3 4 3 3 4 4 5 3 3 2 6 9 11 11 14 18 19
17 15 13 15 16 19 15 18 16 14 10 8 7 10 11 10 9 8 7 7 4 4 5 4 4 4 3 4 7 4 2 4 8 10 11 15 18 19
17 15 13 10 14 13 13 13 10 9 10 8 12 10 10 13 11 10 8 6 3 3 4 4 3 3 3 4 7 5 3 2 7 9 10 15 18 19
17 17 16 16 15 15 14 11 8 6 6 4 7 8 7 13 12 8 9 6 6 3 2 3 3 3 3 3 7 7 6 1 6 8 9 14 16 19
15 15 15 16 20 24 16 14 11 6 9 11 11 11 13 17 13 10 7 8 2 3 3 1 2 2 1 2 3 7 5 4 6 7 9 13 15 17
12 12 16 18 26 25 17 16 14 10 10 9 7 10 12 12 14 6 9 8 4 2 4 4 2 2 1 1 2 3 2 6 6 6 10 13 14 3
12 10 10 19 28 24 20 15 15 15 15 11 9 8 8 6 4 4 4 4 3 3 5 4 2 2 1 2 2 2 1 1 2 4 10 13 15 11
14 12 12 24 28 23 18 20 26 19 10 9 9 8 7 6 5 5 6 7 6 5 7 5 3 3 2 1 2 2 0 1 1 3 4 9 13 14
7 9 17 25 24 18 21 29 25 11 10 10 9 7 6 7 9 8 9 10 10 8 5 4 3 3 2 1 2 1 2 1 2 3 3 4 4 4
15 11 14 17 15 14 17 15 8 9 11 10 9 7 8 8 7 5 6 6 6 4 5 6 5 3 2 2 2 1 1 1 3 3 3 4 4 4
15 11 11 11 11 12 8 7 8 8 9 8 9 8 7 7 7 5 6 4 4 4 3 3 5 4 4 3 2 1 0 2 2 3 4 4 4 5
12 12 11 12 12 12 12 9 8 11 9 9 9 9 8 8 8 5 5 5 6 5 3 2 3 2 1 2 3 1 0 0 2 3 4 4 6 5
9 11 12 12 12 11 12 11 9 7 11 9 9 9 8 8 11 7 6 6 5 5 3 3 2 2 2 3 1 0 1 2 2 3 1 2 5 8
10 12 12 12 13 13 11 11 11 10 9 9 9 9 9 10 9 8 6 6 7 5 4 2 2 1 2 3 3 1 2 2 2 3 3 3 6 14
9 10 10 11 12 12 11 10 11 11 11 10 9 9 9 9 8 7 7 11 10 4 5 3 3 7 3 2 3 0 0 6 4 2 2 4 4 4
8 10 10 10 10 11 11 11 11 11 10 10 10 9 8 7 8 8 7 8 6 4 5 5 2 2 1 2 1 1 2 2 7 7 8 5 3 4
8 8 10 10 10 11 11 11 11 10 10 10 10 9 9 8 8 7 7 6 7 7 7 5 2 2 2 2 1 1 1 2 2 2 2 8 10 15
Wind_Direction
162 158 157 148 156 146 155 160 156 152 178 166 157 179 163 136 155 174 141 127 127 126 120 114 108 101 91 73 59 47 36 29 26 21 15 10 9 3
162 156 149 151 163 140 160 170 183 140 136 144 152 160 154 165 168 178 124 129 138 140 133 132 129 116 97 78 58 49 38 26 20 19 12 7 3 -0
159 163 156 157 155 151 161 175 160 121 122 116 104 154 157 152 158 139 149 146 146 152 151 150 136 130 112 86 60 46 35 20 18 12 10 3 359 359
163 165 159 156 155 155 162 160 152 117 130 143 144 161 164 154 164 143 176 152 149 164 165 158 152 143 125 99 68 49 30 19 12 7 9 360 356 355
164 168 165 157 156 155 153 154 141 127 141 142 137 156 156 155 159 151 148 145 144 150 173 169 165 153 153 130 87 54 26 8 8 7 3 358 355 351
168 170 166 162 156 154 155 155 142 132 126 133 136 154 157 157 160 157 157 159 146 175 150 144 173 160 180 164 113 69 15 358 3 5 1 358 353 347
168 174 168 164 157 160 153 155 149 141 140 138 147 152 165 168 176 164 153 161 152 171 164 162 161 181 195 199 165 152 25 1 3 1 359 357 349 343
165 174 164 151 156 157 154 159 161 154 154 148 161 171 173 174 171 166 161 160 179 192 178 186 166 191 188 198 150 138 75 0 0 358 357 353 346 342
165 168 160 160 154 153 143 145 142 151 156 150 163 175 166 176 164 164 167 170 136 141 147 169 157 231 162 125 167 183 183 7 2 354 354 350 344 341
166 169 161 160 162 149 145 147 139 123 130 129 161 166 157 166 168 163 147 107 71 46 12 138 145 214 131 164 185 206 208 286 348 342 344 343 339 340
167 167 161 161 163 152 151 147 137 111 76 75 93 113 139 149 151 137 141 135 116 156 209 152 166 156 152 161 147 216 205 257 317 331 334 341 340 341
161 162 163 164 161 163 155 152 146 152 131 110 95 96 118 139 141 141 153 155 127 121 190 134 122 156 163 120 145 173 228 238 294 323 337 336 343 332
161 159 166 162 164 168 158 162 158 142 137 125 119 113 116 114 104 107 123 135 121 100 160 104 149 175 111 141 160 173 185 341 4 338 341 336 342 345
169 171 169 164 169 165 155 142 140 134 133 130 129 133 136 133 113 102 92 84 60 109 127 121 138 150 138 132 158 198 203 76 26 319 343 337 336 337
162 164 163 163 163 157 146 144 141 141 140 139 144 143 149 135 118 102 91 90 80 79 73 76 104 109 107 116 125 126 12 312 32 328 350 330 316 315
107 119 141 147 143 130 135 138 135 148 152 147 145 133 133 139 133 138 127 132 98 89 57 70 89 96 123 84 91 97 163 310 329 343 338 312 313 308
122 123 132 137 139 139 139 130 130 134 128 126 132 133 140 137 126 137 135 130 106 147 116 82 60 60 57 87 122 127 52 322 331 327 336 319 304 300
131 149 153 155 157 153 147 138 138 133 131 135 137 143 149 142 136 134 134 120 129 127 120 111 134 128 59 38 35 132 53 328 301 311 304 320 305 314
150 161 161 162 153 157 152 146 144 137 130 133 145 145 144 137 142 147 140 133 120 128 121 132 168 155 150 169 150 297 62 304 307 308 316 289 296 307
159 160 163 159 155 153 156 146 142 139 141 142 146 147 151 152 151 152 153 143 139 132 122 127 92 72 103 165 151 146 170 263 316 302 327 309 282 297
155 155 155 158 156 154 152 149 149 153 149 147 151 150 158 158 145 151 152 150 142 134 143 122 88 89 72 51 38 15 201 224 248 246 284 312 305 305
149 148 149 149 149 150 149 147 144 150 149 151 151 153 153 145 152 148 146 146 143 138 106 106 113 132 112 91 176 200 273 346 303 318 298 250 185 282
141 146 145 144 148 147 148 151 149 151 152 149 150 150 146 148 146 138 135 133 136 122 128 127 96 62 98 116 159 260 297 276 292 314 303 314 306 300